Regional Weather Roundup
Issued by NWS

Home | Current Version | Previous Version | Text Only | Print | Product List | Glossary On
Versions: 1 2 3 4 5 6 7 8 9 10 11 12 13 14 15 16 17 18 19 20 21 22 23 24 25 26 27 28 29 30 31 32 33 34 35 36 37 38 39 40 41 42 43 44 45 46 47 48 49 50
000
ASCA42 TJSJ 231111
RWRPR
PUERTO RICO/U.S. VIRGIN ISLANDS HOURLY WEATHER ROUNDUP
NATIONAL WEATHER SERVICE SAN JUAN PR
700 AM AST SAT AUG 23 2014

PRZ001-004-231200-
PUERTO RICO

CITY           SKY/WX    TMP DP  RH WIND       PRES   REMARKS
SAN JUAN LMM   LGT RAIN  79  73  83 SE12      29.88R
PONCE          LGT RAIN  79  77  94 E12       29.84
AGUADILLA      SUNNY     75  73  94 CALM      29.86R
CEIBA          PTSUNNY   79  75  89 SW7       29.92R
$$

PRZ006-007-231200-
U.S. VIRGIN ISLANDS

CITY           SKY/WX    TMP DP  RH WIND       PRES   REMARKS
$$

HOURLY WEATHER ROUNDUP FOR THE NEWS MEDIA

CITY           SKY/WX    TMP DP  RH WIND       PRES   REMARKS
MIAMI          PTCLDY    80  73  79 NW3       29.96S
ORLANDO        CLEAR     78  71  79 NW3       29.99R
NEW YORK       MOCLDY    67  61  81 NE8       30.07R
NEWARK         MOCLDY    68  60  75 NE6       30.06R
CHICAGO        CLOUDY    73  69  87 E5        29.97S FOG
HARTFORD       SUNNY     62  59  90 N7        30.09R
BOSTON         MOSUNNY   61  58  90 N7        30.12R
DALLAS         CLEAR     81  67  62 S7        29.98R
PHILADELPHIA   MOCLDY    68  62  81 E7        30.04R



USA.gov is the U.S. government's official web portal to all federal, state and local government web resources and services.